APSTAR 6E SPS (55447 NORAD) Tracking and Keplerian Element Data

This shows tracking and keplerian element data for the satellite.

Feedback or suggestion? Click here.




ElementValue
Catalog55447
NameAPSTAR 6E SPS
Epoch Orbit726
Epoch Day126.47136699
Epoch Year2023
RAAN189.507
Inclination28.6358
Eccentricity0.2301588
Argument of Perigee21.5973
Mean Anonmoly346.7556
Mean Motion7.60511111
Decay Rate5.1E-07
L11 55447U 23005C 23126.47136699 .00000051 00000+0 75115-2 0 9990
L22 55447 28.6358 189.5070 2301588 21.5973 346.7556 7.60511111 7267



Live tracking and technical data element details for APSTAR 6E SPS (NORAD 55447). APSTAR 6E SPS can be tracked NOW for your location showing map with azimuth and elevation plus other details from your city location.







IsCatalogInMostPopularTable: catalog: 55447, numindb: -1

Insert: records affected: 1


GetName: 55447 APSTAR 6E SPS

Hit Count: inserted at: Mon, 05 Jun 2023 20:48:05 GMT